Location: Unspecified
(0.0000°N, 0.0000°E)
Time: 17:16:05
(UTC+00:00)

Vanguard 3 - Pass Details

Date: 10 February 2023
Orbit: 509 x 3249 km, 33.3° (Epoch: 20 March)

Event Time Altitude Azimuth Distance (km) Brightness Sun altitude
Rises 03:16:12 0° 280° (W) 7,109 - -42.7°
Reaches altitude 10° 03:21:44 10° 272° (W) 6,178 - -41.4°
Exits shadow 03:35:03 32° 232° (SW) 4,386 10.5 -38.3°
Maximum altitude 03:38:29 34° 214° (SW) 4,160 10.5 -37.5°
Drops below altitude 10° 03:51:51 10° 154° (SSE) 4,899 11.5 -34.3°
Sets 03:55:41 0° 144° (SE) 5,534 12.1 -33.4°
